[[{"header":{"parameterUnit":"m.s-1","parameterCategory":2,"la1":30.2991,"la2":30.254,"lo1":-89.0895,"lo2":-89.0444,"dy":0.0017,"dx":0.0017,"nx":28,"ny":28,"refTime":"2024-08-04T03:00:00:Z","depth":"0","parameterNumber":2,"parameterNumberName":"U-component_of_CURRENTS"},"data":[0,0,0,0,0,0,0,0,0,0,0,0,0,0,0,0,0,0,0,0,0,0,0,0,0,0,0,0,0,0,0,0,0,0,0,0,0,0,0,0,0,0,0,0,0,0,0,0,0,0,0,0,0,0,0,0,0,0,-0.2141,-0.2142,0,-0.2171,-0.2171,-0.2171,-0.2148,-0.2147,-0.2147,-0.2146,-0.2042,-0.204,-0.2038,0,0,0,0,0,0,0,0,0,0,0,0,0,-0.2011,-0.2014,-0.2141,-0.2142,-0.2142,-0.2171,-0.2171,-0.2171,-0.2148,-0.2147,-0.2146,-0.2146,-0.2043,-0.204,-0.2037,0,0,0,0,0,0,0,0,0,0,0,0,0,-0.2054,-0.2015,-0.2141,-0.2137,-0.2137,-0.2171,-0.2171,-0.2171,-0.2148,-0.2147,-0.2146,-0.2145,-0.2043,-0.204,-0.2037,-0.2038,0,0,-0.2027,-0.2026,0,0,0,0,0,0,0,0,-0.2052,-0.2059,-0.2137,-0.2137,-0.2137,-0.2158,-0.2088,-0.2121,-0.2149,-0.214,-0.2146,-0.2145,-0.2071,-0.2066,-0.2071,-0.2034,-0.2029,-0.2027,-0.2025,-0.2024,-0.2023,0,0,0,0,0,0,0,-0.2049,-0.2057,-0.2149,-0.2137,-0.2138,-0.2116,-0.2121,-0.2094,-0.2106,-0.2141,-0.214,-0.2149,-0.207,-0.2074,-0.2068,-0.2028,-0.2027,-0.2024,-0.2022,-0.2021,-0.1902,-0.1901,0,0,0,0,0,0,-0.2057,-0.2055,-0.2149,-0.2151,-0.2095,-0.212,-0.2125,-0.2149,-0.2109,-0.2104,-0.215,-0.2148,-0.208,-0.2072,-0.2064,-0.2042,-0.2024,-0.2021,-0.2019,-0.1904,-0.1902,-0.1901,0,0,0,0,0,0,-0.2054,-0.2065,-0.2147,-0.2105,-0.2114,-0.2124,-0.2151,-0.2151,-0.2151,-0.2118,-0.211,-0.215,-0.2079,-0.2068,-0.2025,-0.2038,-0.2019,-0.2017,-0.1905,-0.1903,-0.1901,-0.2011,0,0,0,0,0,0,-0.205,-0.2065,-0.2072,-0.2106,-0.2117,-0.2165,-0.2152,-0.2152,-0.216,-0.2157,-0.2116,-0.2105,-0.2077,-0.203,-0.2022,-0.2034,-0.2014,-0.1907,-0.1904,-0.1902,-0.2009,-0.2014,-0.2017,0,0,0,0,0,-0.2046,-0.2064,-0.2073,-0.2083,-0.2132,-0.2166,-0.2169,-0.2169,-0.2161,-0.2164,-0.2125,-0.2106,-0.2008,-0.2027,-0.2017,-0.2029,-0.1908,-0.1905,-0.1902,-0.2008,-0.2013,-0.2017,0,0,0,0,0,0,-0.2004,-0.2065,-0.2074,-0.2108,-0.2134,-0.2163,-0.2165,-0.2172,-0.2149,-0.2138,-0.21,-0.2088,-0.2049,-0.2013,-0.2034,-0.1979,-0.1951,-0.1946,-0.2034,-0.2039,-0.2042,-0.207,-0.2011,0,0,0,0,0,-0.2004,-0.2033,-0.2083,-0.2104,-0.2122,-0.2145,-0.2154,-0.2163,-0.2157,-0.2148,-0.212,-0.2073,-0.2033,-0.2016,-0.197,-0.1953,-0.1956,-0.1945,-0.1949,-0.1953,-0.1964,-0.2017,-0.2029,-0.1892,-0.1892,-0.1892,0,0,-0.1989,-0.2027,-0.204,-0.2096,-0.2115,-0.2147,-0.2146,-0.217,-0.2184,-0.2137,-0.2125,-0.2085,-0.2025,-0.2001,-0.1981,-0.1975,-0.1983,-0.195,-0.1954,-0.1963,-0.2016,-0.203,-0.2043,-0.189,-0.189,-0.189,0,0,-0.1985,-0.2016,-0.2044,-0.2076,-0.212,-0.2139,-0.2149,-0.2182,-0.2181,-0.2172,-0.2135,-0.212,-0.2047,-0.2039,-0.2016,-0.2013,-0.1996,-0.1968,-0.2029,-0.2081,-0.2095,-0.2107,-0.2104,-0.2116,-0.1981,-0.1981,-0.1981,0,-0.1965,-0.2016,-0.2051,-0.2092,-0.2119,-0.2139,-0.2175,-0.2182,-0.2189,-0.2203,-0.2168,-0.2126,-0.2079,-0.2088,-0.2067,-0.2033,-0.2028,-0.203,-0.2095,-0.2107,-0.2118,-0.2112,-0.2124,-0.1986,-0.1986,-0.1985,-0.1985,0,-0.1989,-0.203,-0.2049,-0.2111,-0.214,-0.2173,-0.2206,-0.2221,-0.2219,-0.2236,-0.224,-0.22,-0.2181,-0.2158,-0.2102,-0.2145,-0.2102,-0.2097,-0.2106,-0.2141,-0.2129,-0.2139,-0.1993,-0.1992,-0.199,-0.1989,0,0,-0.1954,-0.205,-0.2056,-0.2095,-0.2159,-0.2189,-0.222,-0.2271,-0.2304,-0.2304,-0.235,-0.2297,-0.2296,-0.2266,-0.2226,-0.2262,-0.2314,-0.22,-0.22,-0.2234,-0.2384,-0.2225,-0.222,-0.2325,-0.2328,-0.233,-0.2339,0,-0.1964,-0.2038,-0.2087,-0.2147,-0.219,-0.2236,-0.2269,-0.2314,-0.2334,-0.2375,-0.2385,-0.2383,-0.233,-0.2317,-0.2354,-0.231,-0.2346,-0.2309,-0.2311,-0.231,-0.2198,-0.2229,-0.2099,-0.2085,-0.2349,-0.235,-0.2351,0,-0.1972,-0.2029,-0.209,-0.2189,-0.2213,-0.2245,-0.2325,-0.2357,-0.2425,-0.2441,-0.2485,-0.2476,-0.2502,-0.2455,-0.248,-0.245,-0.2418,-0.2405,-0.2405,-0.223,-0.217,-0.2092,-0.2093,-0.2038,-0.2366,-0.2365,-0.2364,0,-0.1924,-0.2031,-0.2076,-0.2108,-0.2215,-0.225,-0.2299,-0.2375,-0.2415,-0.2479,-0.2504,-0.2562,-0.2552,-0.2577,-0.2501,-0.2497,-0.252,-0.2526,-0.2372,-0.2359,-0.2233,-0.2203,-0.2217,-0.2577,-0.2577,-0.2577,-0.2577,0,-0.1914,-0.1954,-0.2057,-0.2084,-0.2157,-0.2229,-0.2301,-0.2357,-0.2438,-0.2471,-0.2521,-0.2541,-0.2578,-0.2578,-0.2546,-0.2457,-0.2562,-0.2383,-0.2362,-0.2256,-0.223,-0.2161,-0.2189,-0.2577,-0.2577,-0.2577,-0.2577,0,-0.1845,-0.191,-0.1977,-0.2092,-0.2133,-0.2175,-0.2297,-0.2333,-0.2411,-0.2454,-0.2465,-0.2528,-0.2502,-0.2517,-0.2525,-0.2469,-0.2377,-0.2382,-0.2213,-0.217,-0.1959,-0.1997,-0.2009,-0.1966,-0.2238,-0.2234,-0.2231,0,-0.1819,-0.1838,-0.1962,-0.1999,-0.2049,-0.2133,-0.2177,-0.2294,-0.2321,-0.2418,-0.241,-0.2431,-0.2421,-0.2378,-0.2271,-0.2209,-0.2233,-0.2048,-0.2028,-0.1925,-0.1956,-0.2002,-0.197,-0.1904,-0.1899,-0.1894,-0.1891,0,-0.1759,-0.1788,-0.1841,-0.1926,-0.1979,-0.2047,-0.2113,-0.2147,-0.2239,-0.2278,-0.2297,-0.2321,-0.2252,-0.2112,-0.2003,-0.1959,-0.1976,-0.1947,-0.1925,-0.1756,-0.1732,-0.1683,-0.1891,-0.185,-0.1854,-0.1857,-0.1859,-0.1861,-0.1698,-0.1714,-0.1771,-0.1845,-0.1897,-0.1917,-0.1915,-0.1979,-0.2015,-0.202,-0.2127,-0.2045,-0.1961,-0.1783,-0.1738,-0.1516,-0.166,-0.147,-0.1543,-0.161,-0.1517,-0.1586,-0.1462,-0.1464,-0.1465,-0.1467,-0.1468,0,-0.1617,-0.1636,-0.169,-0.1749,-0.1738,-0.1806,-0.1825,-0.178,-0.1751,-0.1755,-0.1774,-0.157,-0.1486,-0.1391,-0.1194,-0.1131,-0.1168,-0.113,-0.1206,-0.1208,-0.1324,-0.125,-0.0972,-0.0972,-0.0972,-0.0972,-0.0972,-0.0972,-0.1572,-0.157,-0.1601,-0.1572,-0.1587,-0.1497,-0.1464,-0.1428,-0.1374,-0.1218,-0.1044,-0.1005,-0.0972,-0.105,-0.0972,-0.0947,-0.0982,-0.0944,-0.1025,-0.1125,-0.1164,-0.1201,-0.1136,-0.0838,-0.0838,-0.0839,-0.0839,-0.0839]},{"header":{"parameterUnit":"m.s-1","parameterCategory":2,"la1":30.2991,"la2":30.254,"lo1":-89.0895,"lo2":-89.0444,"dy":0.0017,"dx":0.0017,"nx":28,"ny":28,"refTime":"2024-08-04T03:00:00:Z","depth":"0","parameterNumber":3,"parameterNumberName":"V-component_of_CURRENTS"},"data":[0,0,0,0,0,0,0,0,0,0,0,0,0,0,0,0,0,0,0,0,0,0,0,0,0,0,0,0,0,0,0,0,0,0,0,0,0,0,0,0,0,0,0,0,0,0,0,0,0,0,0,0,0,0,0,0,0,0,-0.0623,-0.0621,0,-0.0428,-0.0426,-0.0424,-0.0343,-0.0343,-0.0344,-0.0344,-0.0168,-0.0164,-0.0159,0,0,0,0,0,0,0,0,0,0,0,0,0,-0.073,-0.073,-0.0623,-0.0621,-0.0618,-0.0429,-0.0426,-0.0424,-0.0343,-0.0343,-0.0344,-0.0344,-0.017,-0.0164,-0.0158,0,0,0,0,0,0,0,0,0,0,0,0,0,-0.0627,-0.073,-0.0624,-0.0553,-0.0544,-0.0429,-0.0426,-0.0423,-0.0343,-0.0343,-0.0344,-0.0344,-0.0172,-0.0165,-0.0158,-0.0109,0,0,-0.0136,-0.0133,0,0,0,0,0,0,0,0,-0.0633,-0.0624,-0.0566,-0.0558,-0.0548,-0.0408,-0.0399,-0.0318,-0.0343,-0.0423,-0.0344,-0.0344,-0.0248,-0.0235,-0.0201,-0.0101,-0.0093,-0.0135,-0.0131,-0.0128,-0.0126,0,0,0,0,0,0,0,-0.0641,-0.0631,-0.0549,-0.0563,-0.0552,-0.0463,-0.0451,-0.0382,-0.0339,-0.0416,-0.0409,-0.0382,-0.0244,-0.0208,-0.0197,-0.009,-0.0135,-0.0129,-0.0124,-0.0122,0.0078,0.0079,0,0,0,0,0,0,-0.067,-0.0639,-0.0555,-0.0543,-0.0589,-0.0462,-0.0448,-0.0455,-0.0339,-0.0321,-0.0382,-0.0379,-0.0221,-0.0205,-0.019,-0.0127,-0.0128,-0.0121,-0.0117,0.0077,0.0078,0.0079,0,0,0,0,0,0,-0.0673,-0.0665,-0.0563,-0.0581,-0.0562,-0.0461,-0.0468,-0.0451,-0.0417,-0.0313,-0.0296,-0.0366,-0.022,-0.02,-0.012,-0.012,-0.0118,-0.0111,0.0076,0.0077,0.0078,-0.0001,0,0,0,0,0,0,-0.0678,-0.0669,-0.0677,-0.0585,-0.0562,-0.0503,-0.0467,-0.0447,-0.0399,-0.0393,-0.0293,-0.0277,-0.0219,-0.0131,-0.0113,-0.011,-0.0105,0.0074,0.0076,0.0078,0.0001,-0.0002,-0.0005,0,0,0,0,0,-0.0683,-0.0702,-0.068,-0.0668,-0.0581,-0.0503,-0.0484,-0.0412,-0.0398,-0.0384,-0.0308,-0.028,-0.0107,-0.0124,-0.0103,-0.0098,0.0074,0.0076,0.0078,0.0002,-0.0002,-0.0005,0,0,0,0,0,0,-0.0745,-0.0692,-0.0666,-0.0667,-0.0592,-0.0489,-0.0463,-0.0419,-0.0347,-0.0344,-0.0259,-0.0236,-0.0169,-0.0116,-0.0137,-0.0034,-0.0015,-0.0009,-0.008,-0.0083,-0.0085,-0.0115,-0.0099,0,0,0,0,0,-0.0765,-0.0771,-0.0688,-0.0683,-0.0654,-0.0561,-0.052,-0.0474,-0.0396,-0.0365,-0.0291,-0.0212,-0.0141,-0.0101,-0.0029,0.0033,0.005,0.0049,0.0046,0.0043,0.0035,0.0068,0.0066,0.0086,0.0086,0.0086,0,0,-0.0783,-0.0754,-0.0754,-0.0696,-0.0635,-0.059,-0.0538,-0.0485,-0.0442,-0.0357,-0.0284,-0.0219,-0.0126,-0.0058,-0.0024,-0.0015,0.0044,0.0046,0.0042,0.0036,0.007,0.0067,0.0065,0.0088,0.0087,0.0087,0,0,-0.0817,-0.0802,-0.0811,-0.0756,-0.0677,-0.0616,-0.0608,-0.0509,-0.0464,-0.0382,-0.0316,-0.0251,-0.0132,-0.007,-0.0024,0.0004,0.0027,0.0025,-0.0009,0.0022,0.002,0.0018,0.0014,0.0013,0.0025,0.0025,0.0025,0,-0.0835,-0.0841,-0.0793,-0.0771,-0.0726,-0.0637,-0.0612,-0.0547,-0.0432,-0.0399,-0.0371,-0.0213,-0.0139,-0.0063,-0.0049,-0.0005,0.0004,-0.0011,0.0015,0.0014,0.0013,0.001,0.0009,0.0022,0.0022,0.0022,0.0023,0,-0.0862,-0.0856,-0.0851,-0.0805,-0.075,-0.0715,-0.062,-0.057,-0.0508,-0.0442,-0.0359,-0.0254,-0.0169,-0.0132,-0.0076,-0.0039,-0.0036,0.0,0.001,0.0005,0.0003,0.0004,0.0017,0.0018,0.0019,0.002,0,0,-0.092,-0.0884,-0.0878,-0.0863,-0.0768,-0.0728,-0.0665,-0.0583,-0.056,-0.0451,-0.042,-0.0284,-0.0247,-0.0192,-0.0123,-0.0085,-0.0081,-0.0049,-0.0046,-0.0078,-0.0043,0.0047,0.0056,-0.0045,-0.0045,-0.0045,-0.0054,0,-0.0945,-0.0946,-0.0904,-0.0873,-0.0857,-0.0764,-0.0714,-0.0631,-0.0561,-0.0511,-0.041,-0.035,-0.0263,-0.0239,-0.0185,-0.0109,-0.0079,-0.0084,-0.0012,-0.0011,0.0051,0.0061,0.0142,0.015,-0.0053,-0.0053,-0.0053,0,-0.097,-0.0971,-0.0968,-0.0922,-0.0905,-0.0868,-0.0791,-0.0735,-0.0644,-0.0596,-0.0525,-0.0455,-0.0376,-0.0312,-0.0193,-0.0204,-0.0131,-0.0072,-0.007,0.0043,0.0082,0.0131,0.016,0.0297,-0.0051,-0.0051,-0.0051,0,-0.1031,-0.1004,-0.1014,-0.0992,-0.0928,-0.0905,-0.0857,-0.0766,-0.0744,-0.0664,-0.067,-0.0546,-0.0523,-0.0395,-0.0244,-0.0233,-0.013,-0.0099,0.0046,0.0051,0.0152,0.0167,0.0307,-0.0023,-0.0023,-0.0023,-0.0023,0,-0.1066,-0.1067,-0.105,-0.1052,-0.1052,-0.0973,-0.0964,-0.0899,-0.0853,-0.0865,-0.0734,-0.0748,-0.0545,-0.0452,-0.0296,-0.0119,-0.0166,0.0038,0.0066,0.0127,0.014,0.0292,0.0337,-0.0023,-0.0023,-0.0023,-0.0023,0,-0.1111,-0.1105,-0.1118,-0.1092,-0.1084,-0.1077,-0.1044,-0.1045,-0.0993,-0.1017,-0.1007,-0.0919,-0.0779,-0.0553,-0.0365,-0.0207,0.007,0.0048,0.0096,0.0134,0.0414,0.0451,0.058,0.0663,0.0188,0.019,0.0192,0,-0.1123,-0.1148,-0.1167,-0.1179,-0.1166,-0.1158,-0.1159,-0.111,-0.1129,-0.1136,-0.1171,-0.1058,-0.0961,-0.0629,-0.0279,0.0041,0.0144,0.0257,0.0323,0.0448,0.0509,0.0509,0.0568,0.04,0.0403,0.0406,0.0408,0,-0.1151,-0.1175,-0.1193,-0.1239,-0.1253,-0.1288,-0.1297,-0.1349,-0.1325,-0.1362,-0.1414,-0.1344,-0.0966,-0.0549,-0.0068,0.0114,0.0378,0.0326,0.0452,0.0693,0.0703,0.0791,0.0351,0.0434,0.0432,0.043,0.0428,0.0427,-0.1159,-0.1193,-0.1237,-0.1271,-0.1316,-0.1402,-0.1438,-0.1497,-0.1569,-0.1559,-0.154,-0.1262,-0.0681,0.0024,0.0204,0.0675,0.059,0.0806,0.0832,0.0814,0.0938,0.0549,0.0681,0.068,0.0679,0.0678,0.0677,0,-0.1156,-0.1205,-0.1254,-0.1318,-0.139,-0.1402,-0.1509,-0.1555,-0.1668,-0.1498,-0.1457,-0.0614,-0.0115,0.0431,0.1036,0.1204,0.1202,0.1251,0.1271,0.1304,0.0968,0.1028,0.1248,0.1248,0.1248,0.1247,0.1247,0.1247,-0.1147,-0.1206,-0.1248,-0.1357,-0.1407,-0.1496,-0.1561,-0.1652,-0.1541,-0.1166,-0.057,-0.0085,0.0679,0.1199,0.1594,0.1612,0.1722,0.1684,0.1722,0.1503,0.1463,0.1425,0.1495,0.1809,0.181,0.2065,0.2067,0.2069]}],[{"header":{"parameterUnit":"m.s-1","parameterCategory":2,"la1":30.2991,"la2":30.254,"lo1":-89.0895,"lo2":-89.0444,"dy":0.0017,"dx":0.0017,"nx":28,"ny":28,"refTime":"2024-08-04T03:00:00:Z","depth":"2","parameterNumber":2,"parameterNumberName":"U-component_of_CURRENTS"},"data":[0,0,0,0,0,0,0,0,0,0,0,0,0,0,0,0,0,0,0,0,0,0,0,0,0,0,0,0,0,0,0,0,0,0,0,0,0,0,0,0,0,0,0,0,0,0,0,0,0,0,0,0,0,0,0,0,0,0,-0.205,-0.2052,0,-0.2231,-0.2234,-0.2236,-0.2317,-0.2316,-0.2315,-0.2314,-0.2289,-0.2289,-0.229,0,0,0,0,0,0,0,0,0,0,0,0,0,-0.1801,-0.1805,-0.205,-0.2052,-0.2053,-0.223,-0.2234,-0.2237,-0.2317,-0.2315,-0.2314,-0.2313,-0.2289,-0.2289,-0.229,0,0,0,0,0,0,0,0,0,0,0,0,0,-0.1946,-0.1807,-0.205,-0.2108,-0.2114,-0.223,-0.2234,-0.2238,-0.2317,-0.2315,-0.2314,-0.2313,-0.2289,-0.2289,-0.229,-0.2323,0,0,-0.2291,-0.2291,0,0,0,0,0,0,0,0,-0.1938,-0.1956,-0.2098,-0.2104,-0.2111,-0.2242,-0.2137,-0.2253,-0.2317,-0.2249,-0.2314,-0.2312,-0.225,-0.2254,-0.2306,-0.2322,-0.2321,-0.2291,-0.2291,-0.2292,-0.2292,0,0,0,0,0,0,0,-0.1927,-0.1949,-0.213,-0.21,-0.2108,-0.2133,-0.2153,-0.2161,-0.2258,-0.2255,-0.2259,-0.2266,-0.2253,-0.2306,-0.2305,-0.232,-0.2291,-0.2292,-0.2292,-0.2292,-0.2343,-0.2344,0,0,0,0,0,0,-0.189,-0.194,-0.2124,-0.2135,-0.2009,-0.2138,-0.2161,-0.2209,-0.2263,-0.2269,-0.2267,-0.2269,-0.2306,-0.2305,-0.2304,-0.2323,-0.2292,-0.2292,-0.2292,-0.2342,-0.2343,-0.2344,0,0,0,0,0,0,-0.1884,-0.1906,-0.2117,-0.2031,-0.2059,-0.2143,-0.2197,-0.2213,-0.2288,-0.2273,-0.2277,-0.2326,-0.2304,-0.2303,-0.2335,-0.2322,-0.2292,-0.2293,-0.234,-0.2342,-0.2344,-0.2373,0,0,0,0,0,0,-0.1877,-0.1904,-0.1954,-0.2031,-0.2062,-0.2183,-0.2198,-0.2217,-0.2289,-0.2294,-0.2324,-0.232,-0.2303,-0.2335,-0.2336,-0.2322,-0.2293,-0.2339,-0.2341,-0.2343,-0.237,-0.2375,-0.2379,0,0,0,0,0,-0.1868,-0.195,-0.1956,-0.1979,-0.212,-0.2183,-0.2204,-0.2262,-0.2293,-0.2327,-0.2358,-0.232,-0.2346,-0.2338,-0.2338,-0.2324,-0.2338,-0.2341,-0.2343,-0.2368,-0.2374,-0.2379,0,0,0,0,0,0,-0.1888,-0.1967,-0.1975,-0.2082,-0.2116,-0.2193,-0.2261,-0.2284,-0.2349,-0.2364,-0.2355,-0.2354,-0.2365,-0.2358,-0.2349,-0.2346,-0.2328,-0.233,-0.2347,-0.2352,-0.2356,-0.2331,-0.2293,0,0,0,0,0,-0.1904,-0.1987,-0.2027,-0.2116,-0.2142,-0.2205,-0.2252,-0.2273,-0.2324,-0.2357,-0.2376,-0.2387,-0.2378,-0.2378,-0.2377,-0.2396,-0.2347,-0.2382,-0.2386,-0.239,-0.2371,-0.2297,-0.2291,-0.2352,-0.2352,-0.2352,0,0,-0.195,-0.1993,-0.205,-0.2123,-0.218,-0.2222,-0.2236,-0.2309,-0.2337,-0.2337,-0.2417,-0.2408,-0.2389,-0.2399,-0.2401,-0.239,-0.2355,-0.2393,-0.2396,-0.2375,-0.2298,-0.2292,-0.2286,-0.2354,-0.2354,-0.2353,0,0,-0.2037,-0.2107,-0.2182,-0.2202,-0.2249,-0.2276,-0.2293,-0.2364,-0.2395,-0.2442,-0.2439,-0.2435,-0.2459,-0.2431,-0.2416,-0.245,-0.2381,-0.2447,-0.2446,-0.2375,-0.2368,-0.2361,-0.2314,-0.2303,-0.2447,-0.2447,-0.2447,0,-0.2073,-0.2162,-0.221,-0.2249,-0.2265,-0.2297,-0.2332,-0.2379,-0.2444,-0.2442,-0.246,-0.247,-0.2461,-0.2432,-0.2442,-0.2453,-0.241,-0.2425,-0.2376,-0.2368,-0.2361,-0.2314,-0.2301,-0.2449,-0.2449,-0.2449,-0.2449,0,-0.2159,-0.2238,-0.2289,-0.234,-0.2362,-0.2408,-0.2423,-0.2461,-0.2489,-0.2493,-0.2488,-0.2492,-0.2468,-0.2474,-0.2469,-0.2413,-0.24,-0.2388,-0.2354,-0.2355,-0.2307,-0.2293,-0.2452,-0.2451,-0.245,-0.245,0,0,-0.2222,-0.2326,-0.2342,-0.235,-0.2397,-0.2409,-0.246,-0.2468,-0.2447,-0.2508,-0.2465,-0.2491,-0.2465,-0.2448,-0.2436,-0.2393,-0.232,-0.2371,-0.2367,-0.231,-0.217,-0.2135,-0.2116,-0.2292,-0.2289,-0.2287,-0.2165,0,-0.2266,-0.2341,-0.2373,-0.2426,-0.2465,-0.2465,-0.2471,-0.2469,-0.2467,-0.2434,-0.2434,-0.2395,-0.2462,-0.2418,-0.2396,-0.2321,-0.2281,-0.2355,-0.219,-0.2185,-0.2139,-0.2097,-0.1948,-0.1823,-0.2151,-0.2149,-0.2147,0,-0.2308,-0.2357,-0.2416,-0.2422,-0.2427,-0.2442,-0.2396,-0.2401,-0.2362,-0.234,-0.2328,-0.2305,-0.2275,-0.2303,-0.2226,-0.2268,-0.222,-0.2183,-0.2177,-0.2114,-0.2121,-0.1871,-0.1785,-0.2123,-0.2124,-0.2126,-0.2128,0,-0.2282,-0.2364,-0.2399,-0.2409,-0.2432,-0.2427,-0.2421,-0.2382,-0.2319,-0.2278,-0.2214,-0.2193,-0.2159,-0.2112,-0.2116,-0.2129,-0.2012,-0.2006,-0.1942,-0.1941,-0.1764,-0.175,-0.1919,-0.1919,-0.1919,-0.1919,-0.192,0,-0.2296,-0.2316,-0.2393,-0.241,-0.2364,-0.2399,-0.2298,-0.2296,-0.2217,-0.2122,-0.2164,-0.2094,-0.2104,-0.2066,-0.2051,-0.1976,-0.1969,-0.1915,-0.1889,-0.1777,-0.1766,-0.1988,-0.1997,-0.1915,-0.1916,-0.1917,-0.1918,0,-0.2254,-0.2325,-0.2338,-0.2377,-0.2361,-0.2326,-0.2211,-0.2108,-0.2114,-0.1995,-0.1978,-0.1981,-0.195,-0.1976,-0.1891,-0.1886,-0.1812,-0.1793,-0.1688,-0.1651,-0.1793,-0.1806,-0.1632,-0.1629,-0.1627,-0.1625,-0.1624,0,-0.2229,-0.2254,-0.2274,-0.2229,-0.2246,-0.2176,-0.2069,-0.2044,-0.1956,-0.193,-0.1867,-0.185,-0.1815,-0.1739,-0.1693,-0.1632,-0.1744,-0.1477,-0.1463,-0.1762,-0.1755,-0.1772,-0.1787,-0.1248,-0.1244,-0.124,-0.1237,0,-0.215,-0.2164,-0.2164,-0.2094,-0.2019,-0.1883,-0.1803,-0.1736,-0.1715,-0.1688,-0.1682,-0.1671,-0.1617,-0.1493,-0.1456,-0.141,-0.1471,-0.1397,-0.168,-0.1369,-0.1396,-0.1392,-0.142,-0.1204,-0.1208,-0.121,-0.1212,-0.1213,-0.2033,-0.2005,-0.1996,-0.1891,-0.1794,-0.1651,-0.1527,-0.1501,-0.1423,-0.1428,-0.1499,-0.1457,-0.1408,-0.1239,-0.1183,-0.1134,-0.1226,-0.117,-0.1182,-0.1198,-0.1199,-0.1224,-0.1,-0.1002,-0.1004,-0.1005,-0.1007,0,-0.1873,-0.1842,-0.1758,-0.1641,-0.1462,-0.1475,-0.1342,-0.1237,-0.1204,-0.1257,-0.1287,-0.1107,-0.1016,-0.0986,-0.0833,-0.0806,-0.0806,-0.079,-0.0785,-0.0816,-0.0845,-0.0831,-0.0532,-0.0531,-0.053,-0.0529,0,0,-0.178,-0.167,-0.1634,-0.1336,-0.1245,-0.1039,-0.0971,-0.0925,-0.0926,-0.0923,-0.0915,-0.0994,-0.0943,-0.0735,-0.0688,-0.0591,-0.071,-0.0561,-0.0936,-0.0962,-0.099,-0.1049,-0.1061,0,0,0,0,0]},{"header":{"parameterUnit":"m.s-1","parameterCategory":2,"la1":30.2991,"la2":30.254,"lo1":-89.0895,"lo2":-89.0444,"dy":0.0017,"dx":0.0017,"nx":28,"ny":28,"refTime":"2024-08-04T03:00:00:Z","depth":"2","parameterNumber":3,"parameterNumberName":"V-component_of_CURRENTS"},"data":[0,0,0,0,0,0,0,0,0,0,0,0,0,0,0,0,0,0,0,0,0,0,0,0,0,0,0,0,0,0,0,0,0,0,0,0,0,0,0,0,0,0,0,0,0,0,0,0,0,0,0,0,0,0,0,0,0,0,0.0032,0.0032,0,0.0172,0.0175,0.0177,0.0278,0.0278,0.0278,0.0278,0.0403,0.0406,0.041,0,0,0,0,0,0,0,0,0,0,0,0,0,0.0012,0.0012,0.0032,0.0032,0.0033,0.0172,0.0175,0.0178,0.0278,0.0278,0.0278,0.0278,0.0402,0.0406,0.041,0,0,0,0,0,0,0,0,0,0,0,0,0,0.0082,0.0012,0.0031,0.0094,0.01,0.0171,0.0175,0.0178,0.0278,0.0278,0.0278,0.0278,0.0401,0.0405,0.041,0.0441,0,0,0.0426,0.0428,0,0,0,0,0,0,0,0,0.0077,0.0083,0.0083,0.0089,0.0096,0.02,0.0213,0.0262,0.0278,0.022,0.0278,0.0278,0.0328,0.0339,0.0378,0.0447,0.0452,0.0426,0.0429,0.0431,0.0433,0,0,0,0,0,0,0,0.0072,0.0079,0.0097,0.0084,0.0092,0.0169,0.0179,0.0225,0.0279,0.0225,0.023,0.0232,0.0332,0.0373,0.0382,0.0454,0.0426,0.043,0.0433,0.0435,0.0642,0.0645,0,0,0,0,0,0,0.0028,0.0073,0.0092,0.01,0.0076,0.0168,0.0179,0.0174,0.0279,0.0292,0.0231,0.0236,0.0365,0.0376,0.0386,0.0484,0.0431,0.0436,0.0439,0.064,0.0643,0.0646,0,0,0,0,0,0,0.0027,0.0028,0.0086,0.0083,0.0095,0.0166,0.0161,0.0176,0.0219,0.0282,0.0297,0.0257,0.0365,0.0379,0.0459,0.0486,0.0438,0.0443,0.0637,0.0641,0.0644,0.0642,0,0,0,0,0,0,0.0026,0.0027,0.002,0.0079,0.0093,0.0115,0.0161,0.0179,0.0215,0.0223,0.0309,0.0321,0.0366,0.0452,0.0464,0.0492,0.0447,0.0634,0.0639,0.0643,0.0639,0.0645,0.0651,0,0,0,0,0,0.0025,0.0017,0.0018,0.0021,0.0076,0.0113,0.0129,0.0187,0.0216,0.0229,0.0316,0.0318,0.049,0.0458,0.0472,0.0502,0.0632,0.0637,0.0643,0.0636,0.0644,0.0651,0,0,0,0,0,0,0.0015,0.0028,0.003,0.0029,0.0055,0.0127,0.0151,0.0184,0.0265,0.0279,0.035,0.0369,0.045,0.0481,0.0443,0.058,0.0561,0.057,0.0552,0.0559,0.0565,0.0506,0.0451,0,0,0,0,0,0.0,-0.0006,0.0018,0.0017,0.0028,0.0088,0.0115,0.0144,0.0214,0.025,0.0321,0.0404,0.0485,0.0523,0.059,0.0658,0.063,0.069,0.0696,0.07,0.0666,0.0678,0.068,0.0664,0.0664,0.0664,0,0,-0.0002,0.0001,0.0,0.0013,0.005,0.0075,0.0108,0.0138,0.018,0.0248,0.0349,0.0421,0.0509,0.06,0.0637,0.0627,0.069,0.0708,0.071,0.0672,0.0684,0.0685,0.0685,0.0668,0.0667,0.0667,0,0,-0.0013,-0.001,-0.0019,-0.0002,0.002,0.0065,0.0065,0.0134,0.0187,0.0272,0.035,0.0439,0.0553,0.0635,0.0687,0.0762,0.0719,0.0784,0.0765,0.0779,0.0778,0.0778,0.0722,0.0717,0.0788,0.0788,0.0788,0,-0.0021,-0.0034,-0.0012,-0.0013,-0.0,0.0055,0.0059,0.0131,0.0225,0.0257,0.0297,0.0481,0.0574,0.0673,0.0725,0.0772,0.0735,0.0727,0.078,0.0779,0.0778,0.0722,0.0716,0.0788,0.0788,0.0788,0.0788,0,-0.0046,-0.0046,-0.0043,-0.0028,-0.0005,0.0007,0.0077,0.0127,0.0198,0.0258,0.036,0.0494,0.0587,0.0656,0.0725,0.078,0.0738,0.078,0.0745,0.0778,0.0719,0.0712,0.0789,0.0789,0.0789,0.0789,0,0,-0.0092,-0.007,-0.007,-0.007,-0.0021,-0.0007,0.0064,0.0122,0.0144,0.0268,0.0294,0.0502,0.0542,0.0604,0.0697,0.0737,0.074,0.0752,0.0752,0.0663,0.0696,0.075,0.0747,0.0776,0.0775,0.0775,0.0646,0,-0.0121,-0.0142,-0.0112,-0.0098,-0.0096,-0.0035,0.0014,0.0076,0.0149,0.0195,0.0326,0.0399,0.0533,0.0566,0.0637,0.0711,0.0724,0.0766,0.0704,0.07,0.072,0.0744,0.0744,0.0638,0.0639,0.0638,0.0637,0,-0.0169,-0.0169,-0.0192,-0.0157,-0.0153,-0.0133,-0.009,-0.0034,0.0046,0.0092,0.0174,0.025,0.036,0.045,0.0561,0.0569,0.0623,0.0673,0.067,0.0709,0.0745,0.0614,0.0625,0.0625,0.0626,0.0627,0.0628,0,-0.0248,-0.0222,-0.025,-0.0242,-0.0195,-0.0191,-0.0146,-0.0079,-0.0051,0.0008,0.001,0.0126,0.0192,0.0273,0.0448,0.0473,0.0516,0.0566,0.0644,0.0645,0.0627,0.0629,0.0598,0.0598,0.0598,0.0599,0.0599,0,-0.0309,-0.0323,-0.0292,-0.0313,-0.032,-0.0264,-0.0273,-0.0214,-0.018,-0.0157,-0.0049,-0.0007,0.0155,0.0231,0.0348,0.0482,0.0446,0.0615,0.0628,0.0629,0.0633,0.0619,0.0623,0.0594,0.0595,0.0596,0.0597,0,-0.0405,-0.039,-0.0415,-0.0386,-0.0369,-0.0378,-0.0338,-0.0345,-0.0294,-0.0276,-0.0266,-0.0131,-0.0014,0.0118,0.0248,0.0377,0.0473,0.0524,0.0488,0.0503,0.0588,0.0594,0.0543,0.0544,0.0545,0.0546,0.0546,0,-0.0457,-0.0492,-0.0489,-0.0485,-0.0473,-0.0465,-0.0462,-0.0409,-0.0403,-0.0315,-0.031,-0.0211,-0.0086,0.0097,0.0294,0.0423,0.0465,0.0506,0.0603,0.057,0.0587,0.0592,0.0597,0.0545,0.0546,0.0546,0.0546,0,-0.0553,-0.0575,-0.0595,-0.058,-0.0579,-0.0578,-0.0552,-0.057,-0.0496,-0.0457,-0.0353,-0.0264,-0.0056,0.0154,0.0339,0.0432,0.0486,0.0523,0.0485,0.0597,0.0574,0.0591,0.0594,0.0551,0.055,0.055,0.055,0.055,-0.0627,-0.0665,-0.0683,-0.0656,-0.0655,-0.0652,-0.065,-0.0626,-0.0595,-0.0471,-0.0357,-0.0164,0.0011,0.0324,0.0435,0.0532,0.0546,0.0597,0.0594,0.0591,0.0652,0.0638,0.0631,0.0631,0.0631,0.0631,0.0631,0,-0.07,-0.0725,-0.0725,-0.0709,-0.0713,-0.0693,-0.0679,-0.0645,-0.0594,-0.0424,-0.0269,-0.004,0.0205,0.0344,0.0524,0.0638,0.0618,0.0635,0.0602,0.0598,0.0594,0.0656,0.0635,0.0635,0.0635,0.0635,0,0,-0.074,-0.0775,-0.0759,-0.0743,-0.0737,-0.0748,-0.0743,-0.0669,-0.0533,-0.0355,-0.0186,0.0111,0.0272,0.0409,0.0521,0.0588,0.0566,0.0582,0.0575,0.0522,0.0517,0.0572,0.0663,0,0,0,0,0]}],[{"header":{"parameterUnit":"m.s-1","parameterCategory":2,"la1":30.2991,"la2":30.254,"lo1":-89.0895,"lo2":-89.0444,"dy":0.0017,"dx":0.0017,"nx":28,"ny":28,"refTime":"2024-08-04T03:00:00:Z","depth":"4","parameterNumber":2,"parameterNumberName":"U-component_of_CURRENTS"},"data":[0,0,0,0,0,0,0,0,0,0,0,0,0,0,0,0,0,0,0,0,0,0,0,0,0,0,0,0,0,0,0,0,0,0,0,0,0,0,0,0,0,0,0,0,0,0,0,0,0,0,0,0,0,0,0,0,0,0,-0.1043,-0.1044,0,-0.1117,-0.1118,-0.1118,-0.1133,-0.1132,-0.1132,-0.1132,-0.1178,-0.118,-0.1181,0,0,0,0,0,0,0,0,0,0,0,0,0,-0.0942,-0.0943,-0.1043,-0.1044,-0.1045,-0.1117,-0.1118,-0.1118,-0.1133,-0.1132,-0.1132,-0.1132,-0.1178,-0.118,-0.1182,0,0,0,0,0,0,0,0,0,0,0,0,0,-0.0995,-0.0944,-0.1043,-0.1063,-0.1066,-0.1117,-0.1118,-0.1119,-0.1133,-0.1132,-0.1132,-0.1131,-0.1177,-0.118,-0.1182,-0.1205,0,0,-0.1189,-0.119,0,0,0,0,0,0,0,0,-0.0992,-0.0998,-0.1059,-0.1062,-0.1065,-0.1118,-0.11,-0.1147,-0.1133,-0.1104,-0.1132,-0.1131,-0.1158,-0.1162,-0.1173,-0.1208,-0.121,-0.1189,-0.119,-0.1191,-0.1192,0,0,0,0,0,0,0,-0.0988,-0.0995,-0.1069,-0.106,-0.1064,-0.1079,-0.1085,-0.1109,-0.113,-0.1107,-0.1109,-0.1122,-0.1159,-0.1171,-0.1174,-0.121,-0.1189,-0.1191,-0.1192,-0.1193,-0.1284,-0.1285,0,0,0,0,0,0,-0.0985,-0.0992,-0.1067,-0.1072,-0.103,-0.1081,-0.1088,-0.1099,-0.113,-0.1136,-0.1122,-0.1122,-0.1167,-0.1171,-0.1176,-0.1215,-0.1191,-0.1194,-0.1195,-0.1283,-0.1284,-0.1285,0,0,0,0,0,0,-0.0982,-0.099,-0.1064,-0.1036,-0.1047,-0.1083,-0.1095,-0.1101,-0.1127,-0.1143,-0.1147,-0.1144,-0.1167,-0.1172,-0.1211,-0.1217,-0.1195,-0.1197,-0.1281,-0.1283,-0.1284,-0.1288,0,0,0,0,0,0,-0.0979,-0.0989,-0.1001,-0.1036,-0.1048,-0.1097,-0.1096,-0.1102,-0.1136,-0.1137,-0.1163,-0.1166,-0.1167,-0.1208,-0.1213,-0.122,-0.1199,-0.128,-0.1282,-0.1284,-0.1287,-0.129,-0.1292,0,0,0,0,0,-0.0975,-0.0984,-0.1001,-0.101,-0.1061,-0.1098,-0.1106,-0.1128,-0.1138,-0.115,-0.1173,-0.1166,-0.1223,-0.1211,-0.1217,-0.1224,-0.1279,-0.1281,-0.1284,-0.1286,-0.1289,-0.1292,0,0,0,0,0,0,-0.0947,-0.0988,-0.1006,-0.1029,-0.1066,-0.1102,-0.1117,-0.114,-0.117,-0.1176,-0.1187,-0.1192,-0.1231,-0.1232,-0.1218,-0.1257,-0.1247,-0.1251,-0.1247,-0.125,-0.1253,-0.1268,-0.12,0,0,0,0,0,-0.0949,-0.0965,-0.1011,-0.1031,-0.1049,-0.109,-0.1111,-0.1134,-0.1164,-0.1178,-0.12,-0.1222,-0.1244,-0.1251,-0.1277,-0.1298,-0.1304,-0.1306,-0.1309,-0.1311,-0.1328,-0.1343,-0.1348,-0.1292,-0.1292,-0.1292,0,0,-0.0945,-0.097,-0.0981,-0.1027,-0.1055,-0.1088,-0.11,-0.1139,-0.1173,-0.1179,-0.1228,-0.1244,-0.1258,-0.1284,-0.1299,-0.1283,-0.1328,-0.1314,-0.1315,-0.1332,-0.1346,-0.1351,-0.1356,-0.1294,-0.1294,-0.1293,0,0,-0.0943,-0.0967,-0.0984,-0.1012,-0.1064,-0.1095,-0.1111,-0.1163,-0.119,-0.1244,-0.1252,-0.1278,-0.1316,-0.132,-0.1327,-0.1364,-0.1353,-0.1363,-0.1375,-0.1388,-0.1393,-0.1397,-0.1398,-0.1402,-0.1349,-0.135,-0.135,0,-0.0939,-0.0967,-0.0996,-0.102,-0.1049,-0.1099,-0.1133,-0.1169,-0.123,-0.1255,-0.1262,-0.1324,-0.1336,-0.1356,-0.1366,-0.137,-0.1371,-0.1356,-0.139,-0.1395,-0.1399,-0.1399,-0.1404,-0.135,-0.135,-0.135,-0.135,0,-0.0945,-0.0977,-0.0987,-0.1036,-0.1074,-0.1107,-0.1166,-0.1208,-0.1253,-0.1289,-0.1342,-0.1362,-0.1393,-0.1392,-0.1393,-0.1419,-0.1409,-0.1401,-0.1378,-0.1405,-0.1404,-0.1408,-0.1351,-0.1351,-0.135,-0.135,0,0,-0.09,-0.0979,-0.098,-0.101,-0.1086,-0.1113,-0.1179,-0.1245,-0.1286,-0.1336,-0.1383,-0.1417,-0.1431,-0.1441,-0.1436,-0.1441,-0.1466,-0.1432,-0.1432,-0.1426,-0.1487,-0.1371,-0.1365,-0.1457,-0.1458,-0.1459,-0.1469,0,-0.0897,-0.0945,-0.0991,-0.1043,-0.1077,-0.1142,-0.1196,-0.1262,-0.1327,-0.1381,-0.1405,-0.1451,-0.1446,-0.146,-0.1468,-0.1478,-0.1481,-0.1464,-0.147,-0.147,-0.1358,-0.1368,-0.1463,-0.1472,-0.1473,-0.1474,-0.1474,0,-0.0878,-0.0919,-0.0979,-0.1057,-0.1076,-0.1119,-0.1213,-0.127,-0.1357,-0.1408,-0.1456,-0.1485,-0.1514,-0.1504,-0.153,-0.1517,-0.1513,-0.1508,-0.1508,-0.1407,-0.1363,-0.1445,-0.1483,-0.1482,-0.1482,-0.1481,-0.1481,0,-0.0824,-0.0898,-0.0951,-0.0975,-0.1079,-0.1118,-0.1174,-0.1275,-0.1338,-0.1427,-0.1475,-0.1516,-0.1543,-0.1553,-0.1559,-0.1548,-0.1578,-0.1557,-0.1447,-0.1438,-0.1538,-0.1534,-0.1577,-0.1577,-0.1577,-0.1577,-0.1577,0,-0.079,-0.0819,-0.0928,-0.095,-0.1004,-0.1089,-0.1172,-0.123,-0.1343,-0.1404,-0.1479,-0.1515,-0.1559,-0.158,-0.1576,-0.1523,-0.1592,-0.1456,-0.1434,-0.1538,-0.1534,-0.154,-0.1536,-0.1577,-0.1577,-0.1577,-0.1577,0,-0.0713,-0.0791,-0.0837,-0.0944,-0.0987,-0.1014,-0.116,-0.1223,-0.1328,-0.1412,-0.144,-0.1526,-0.1535,-0.1564,-0.1578,-0.1526,-0.15,-0.1466,-0.1579,-0.1563,-0.1347,-0.1343,-0.1333,-0.1329,-0.1326,-0.1323,-0.1321,0,-0.0676,-0.0708,-0.0812,-0.0847,-0.0897,-0.0983,-0.1063,-0.12,-0.127,-0.1398,-0.1416,-0.1468,-0.1504,-0.1435,-0.1469,-0.1442,-0.1422,-0.1405,-0.1371,-0.1343,-0.1323,-0.1325,-0.1325,-0.1316,-0.1315,-0.1314,-0.1313,0,-0.0599,-0.0644,-0.0674,-0.0758,-0.0834,-0.0941,-0.1048,-0.1095,-0.1246,-0.1341,-0.1358,-0.1358,-0.136,-0.1352,-0.1344,-0.1325,-0.1414,-0.1369,-0.1375,-0.1344,-0.1321,-0.1305,-0.131,-0.1301,-0.1303,-0.1304,-0.1305,0,-0.0526,-0.0518,-0.0581,-0.0645,-0.0751,-0.0868,-0.0943,-0.1031,-0.112,-0.1251,-0.1243,-0.1291,-0.1345,-0.129,-0.1285,-0.1254,-0.1221,-0.1179,-0.1195,-0.1208,-0.1159,-0.1112,-0.101,0,0,0,0,0,-0.0452,-0.0455,-0.0487,-0.0574,-0.0684,-0.077,-0.0929,-0.1017,-0.1151,-0.1128,-0.1188,-0.1181,-0.1158,-0.118,-0.1116,-0.1216,-0.1228,-0.1136,-0.1189,-0.1236,-0.125,-0.1202,0,0,0,0,0,0,-0.041,-0.0417,-0.0439,-0.0519,-0.0583,-0.0728,-0.0835,-0.0933,-0.0933,-0.1038,-0.1028,-0.1089,-0.1082,-0.1163,-0.1081,-0.1087,-0.1092,-0.1165,-0.1161,-0.1229,-0.1241,-0.1252,-0.1207,0,0,0,0,0]},{"header":{"parameterUnit":"m.s-1","parameterCategory":2,"la1":30.2991,"la2":30.254,"lo1":-89.0895,"lo2":-89.0444,"dy":0.0017,"dx":0.0017,"nx":28,"ny":28,"refTime":"2024-08-04T03:00:00:Z","depth":"4","parameterNumber":3,"parameterNumberName":"V-component_of_CURRENTS"},"data":[0,0,0,0,0,0,0,0,0,0,0,0,0,0,0,0,0,0,0,0,0,0,0,0,0,0,0,0,0,0,0,0,0,0,0,0,0,0,0,0,0,0,0,0,0,0,0,0,0,0,0,0,0,0,0,0,0,0,-0.0109,-0.0109,0,-0.0108,-0.0108,-0.0108,-0.0079,-0.0079,-0.0078,-0.0077,-0.0031,-0.0031,-0.0031,0,0,0,0,0,0,0,0,0,0,0,0,0,-0.004,-0.0042,-0.0109,-0.0109,-0.0109,-0.0108,-0.0108,-0.0108,-0.008,-0.0079,-0.0078,-0.0077,-0.0032,-0.0031,-0.0031,0,0,0,0,0,0,0,0,0,0,0,0,0,-0.0058,-0.0042,-0.0109,-0.0094,-0.0093,-0.0108,-0.0108,-0.0108,-0.008,-0.0079,-0.0077,-0.0076,-0.0032,-0.0031,-0.003,-0.005,0,0,-0.0028,-0.0028,0,0,0,0,0,0,0,0,-0.0057,-0.0061,-0.0096,-0.0095,-0.0093,-0.0092,-0.0067,-0.0086,-0.008,-0.0085,-0.0077,-0.0076,-0.0048,-0.0046,-0.005,-0.0047,-0.0045,-0.0028,-0.0028,-0.0027,-0.0027,0,0,0,0,0,0,0,-0.0056,-0.006,-0.0109,-0.0096,-0.0095,-0.0072,-0.0074,-0.0071,-0.0073,-0.0085,-0.0082,-0.0082,-0.0047,-0.0051,-0.0048,-0.0045,-0.0028,-0.0028,-0.0027,-0.0027,-0.0074,-0.0075,0,0,0,0,0,0,-0.006,-0.006,-0.0109,-0.0109,-0.0072,-0.0074,-0.0076,-0.0094,-0.0074,-0.007,-0.0083,-0.0081,-0.0053,-0.0049,-0.0047,-0.0072,-0.0027,-0.0027,-0.0026,-0.0072,-0.0074,-0.0076,0,0,0,0,0,0,-0.0058,-0.0065,-0.0109,-0.0082,-0.0086,-0.0077,-0.0097,-0.0095,-0.0092,-0.0073,-0.0068,-0.0082,-0.0051,-0.0048,-0.0048,-0.007,-0.0026,-0.0026,-0.007,-0.0073,-0.0075,-0.0121,0,0,0,0,0,0,-0.0057,-0.0065,-0.0079,-0.0084,-0.0088,-0.0122,-0.0098,-0.0096,-0.0094,-0.0091,-0.007,-0.0065,-0.005,-0.005,-0.0048,-0.0068,-0.0025,-0.0068,-0.0071,-0.0074,-0.0117,-0.0125,-0.0131,0,0,0,0,0,-0.0055,-0.0083,-0.008,-0.0085,-0.0109,-0.0123,-0.0124,-0.0112,-0.0095,-0.0103,-0.0089,-0.0066,-0.0069,-0.005,-0.0048,-0.0068,-0.0066,-0.007,-0.0074,-0.0114,-0.0123,-0.0131,0,0,0,0,0,0,-0.0062,-0.0083,-0.008,-0.0113,-0.0117,-0.0118,-0.0127,-0.0114,-0.0111,-0.0105,-0.008,-0.0076,-0.0086,-0.0077,-0.0057,-0.0095,-0.0067,-0.007,-0.0098,-0.0107,-0.0114,-0.0087,-0.0025,0,0,0,0,0,-0.0071,-0.0097,-0.0106,-0.0131,-0.0137,-0.0131,-0.0133,-0.0126,-0.0123,-0.012,-0.0108,-0.0102,-0.0104,-0.0102,-0.0102,-0.0119,-0.0059,-0.0135,-0.0142,-0.0147,-0.0127,-0.0058,-0.0055,-0.0088,-0.0088,-0.0088,0,0,-0.0081,-0.0095,-0.011,-0.0134,-0.0137,-0.0156,-0.013,-0.0141,-0.0151,-0.0116,-0.013,-0.0121,-0.0114,-0.0134,-0.0138,-0.0125,-0.011,-0.0152,-0.0157,-0.0132,-0.0061,-0.0057,-0.0054,-0.0091,-0.009,-0.009,0,0,-0.0114,-0.0128,-0.0159,-0.0169,-0.0179,-0.0175,-0.0178,-0.0181,-0.0178,-0.0192,-0.0172,-0.0167,-0.018,-0.0172,-0.017,-0.0215,-0.0147,-0.0232,-0.0243,-0.0178,-0.0173,-0.0168,-0.0092,-0.0079,-0.0237,-0.0237,-0.0237,0,-0.0124,-0.0166,-0.0167,-0.0198,-0.0206,-0.0185,-0.0211,-0.0212,-0.0213,-0.0206,-0.0203,-0.0196,-0.0194,-0.0194,-0.0219,-0.0226,-0.0171,-0.021,-0.0182,-0.0176,-0.017,-0.0092,-0.0078,-0.024,-0.024,-0.0239,-0.0239,0,-0.0178,-0.0209,-0.0228,-0.0259,-0.0266,-0.0287,-0.0285,-0.0287,-0.0276,-0.0266,-0.0259,-0.0249,-0.0234,-0.0253,-0.0252,-0.0227,-0.0195,-0.0193,-0.015,-0.0168,-0.0087,-0.0071,-0.0244,-0.0243,-0.0242,-0.0241,0,0,-0.0207,-0.0258,-0.0264,-0.0284,-0.03,-0.0312,-0.0325,-0.0324,-0.0313,-0.0312,-0.0287,-0.0307,-0.0273,-0.0269,-0.026,-0.0218,-0.0146,-0.0195,-0.019,-0.0099,0.0018,-0.0013,0.0002,-0.0133,-0.0131,-0.0129,0.0058,0,-0.0247,-0.031,-0.0321,-0.0367,-0.0395,-0.0381,-0.0389,-0.0379,-0.0359,-0.033,-0.0298,-0.0278,-0.0288,-0.0272,-0.0233,-0.016,-0.0106,-0.0196,0.0006,0.0013,0.0003,0.0018,-0.0122,0.0071,0.0074,0.0077,0.0079,0,-0.0295,-0.0329,-0.0387,-0.0413,-0.0422,-0.044,-0.0425,-0.0432,-0.0383,-0.0359,-0.0315,-0.0273,-0.0213,-0.0218,-0.0075,-0.0128,-0.0057,-0.0001,0.0007,0.0012,0.0011,0.0091,0.0109,0.0106,0.0104,0.0102,0.01,0,-0.0311,-0.037,-0.0414,-0.0431,-0.0459,-0.047,-0.0472,-0.044,-0.0424,-0.0362,-0.0317,-0.0241,-0.0178,-0.0084,0.0008,-0.0014,0.0181,0.0169,0.0216,0.0215,0.0212,0.0205,0.0285,0.0284,0.0284,0.0283,0.0283,0,-0.0349,-0.0383,-0.0429,-0.0459,-0.0487,-0.0495,-0.0498,-0.0482,-0.043,-0.0383,-0.0328,-0.0246,-0.0139,-0.0025,0.0049,0.0183,0.0221,0.0237,0.0265,0.0183,0.0171,0.0224,0.0214,0.029,0.0289,0.0288,0.0286,0,-0.0362,-0.0398,-0.0453,-0.0495,-0.0504,-0.0525,-0.0522,-0.0508,-0.0458,-0.0383,-0.0353,-0.0218,-0.0071,0.0026,0.0201,0.0243,0.0363,0.0395,0.0318,0.0334,0.0353,0.0339,0.05,0.0501,0.0501,0.0502,0.0502,0,-0.0378,-0.0412,-0.0478,-0.0505,-0.0529,-0.0553,-0.0554,-0.0526,-0.0496,-0.0353,-0.0302,-0.0146,-0.0057,0.0195,0.0267,0.0418,0.041,0.0485,0.0401,0.0367,0.0378,0.0362,0.0347,0.0503,0.0503,0.0503,0.0503,0,-0.04,-0.0427,-0.0468,-0.0521,-0.0548,-0.0567,-0.0564,-0.0533,-0.0465,-0.0413,-0.0211,-0.0075,0.0087,0.0229,0.0325,0.0424,0.0444,0.049,0.0489,0.0411,0.0371,0.0378,0.0363,0.0505,0.0504,0.0504,0.0504,0,-0.0405,-0.0432,-0.0484,-0.0526,-0.0564,-0.0565,-0.0565,-0.0491,-0.0441,-0.028,-0.0202,-0.0021,0.0093,0.0236,0.0335,0.041,0.0424,0.0449,0.045,0.045,0.034,0.0276,0.0427,0,0,0,0,0,-0.0397,-0.0425,-0.0476,-0.0525,-0.0565,-0.0582,-0.0559,-0.0543,-0.0462,-0.0314,-0.0253,-0.0095,0.0108,0.0205,0.028,0.0288,0.0387,0.0374,0.0403,0.0513,0.0511,0.0383,0,0,0,0,0,0,-0.039,-0.0435,-0.0469,-0.0514,-0.0548,-0.0574,-0.0562,-0.051,-0.042,-0.0315,-0.0205,-0.0095,0.008,0.0055,0.0275,0.03,0.0328,0.0473,0.0475,0.0514,0.0512,0.0511,0.0378,0,0,0,0,0]}]]